This is the latest recevied weather packets stored in our database for station/object BV5AB-13. If no packets are shown the sender has not sent any weather packets the latest 10 day(s).
| Time | Temp. | Humidity | Pressure | Rain* | Wind** | Luminosity | Snow |
|---|---|---|---|---|---|---|---|
| 1778129224 | 30.56° C | 63% | 1001.3 hPa | 0 mm | - | - | - |
| 1778128623 | 30.56° C | 62% | 1001.5 hPa | 0 mm | - | - | - |
| 1778128024 | 30° C | 62% | 1001.7 hPa | 0 mm | - | - | - |
| 1778127423 | 30.56° C | 63% | 1001.8 hPa | 0 mm | - | - | - |
| 1778126824 | 30° C | 68% | 1001.9 hPa | 0 mm | - | - | - |
| 1778126223 | 30° C | 65% | 1002 hPa | 0 mm | - | - | - |
| 1778125623 | 30° C | 65% | 1002.2 hPa | 0 mm | - | - | - |
| 1778125024 | 28.89° C | 67% | 1002.3 hPa | 0 mm | - | - | - |
| 1778124424 | 30° C | 67% | 1002.5 hPa | 0 mm | - | - | - |
| 1778123824 | 28.89° C | 66% | 1002.7 hPa | 0 mm | - | - | - |
| 1778123224 | 29.44° C | 66% | 1002.8 hPa | 0 mm | - | - | - |
| 1778122624 | 28.89° C | 68% | 1002.9 hPa | 0 mm | - | - | - |
| 1778122024 | 28.89° C | 67% | 1003 hPa | 0 mm | - | - | - |
| 1778121423 | 28.89° C | 69% | 1003.2 hPa | 0 mm | - | - | - |
| 1778120824 | 28.89° C | 68% | 1003.1 hPa | 0 mm | - | - | - |
| 1778120223 | 28.33° C | 70% | 1003.2 hPa | 0 mm | - | - | - |
| 1778119623 | 27.78° C | 70% | 1003.3 hPa | 0 mm | - | - | - |
| 1778119024 | 27.78° C | 73% | 1003.4 hPa | 0 mm | - | - | - |
| 1778118423 | 27.22° C | 74% | 1003.4 hPa | 0 mm | - | - | - |
| 1778117823 | 27.22° C | 75% | 1003.5 hPa | 0 mm | - | - | - |
| 1778117224 | 27.22° C | 74% | 1003.6 hPa | 0 mm | - | - | - |
| 1778116623 | 26.67° C | 77% | 1003.7 hPa | 0 mm | - | - | - |
| 1778116023 | 26.11° C | 79% | 1003.7 hPa | 0 mm | - | - | - |
| 1778115424 | 26.67° C | 79% | 1003.6 hPa | 0 mm | - | - | - |
| 1778114823 | 26.11° C | 80% | 1003.6 hPa | 0 mm | - | - | - |
* Rain latest hour (hover to see other rain measurements)
** Current wind speed in m/s (hover to see current wind gust speed)